Погода в Соловьевске

Погода в Соловьевске : погода сейчас, прогноз погоды и архив. Всё, что Вы хотите узнать о погоде в Соловьевске!

Поиск расширенной информации на нашем сайте:

Другие новости

Новости СМИ2

Главная страница сайта

Новости сайта

03.07.2017

Напоминаем, что на нашем специализированном сайте Метеоцентр.Азия вы можете получить высокодетализированные автоматические прогнозы погоды по пунктам России, СНГ и мира в авиационном формате (включающие направление и скорость ветра, видимость, явления погоды, количество и форму облачности, нижнюю и верхнюю границу облачности).


Погода в Соловьевске - сегодня

Время (UTC), дата Ветер
(°,м/с) 
Видим.   Явления Облачность Т
(°С)
Тd
(°С)
f(%) Тe
(°С)
Pmin
(гПа)
dP
(гПа)
Po
(мм)
O2
(г/м3)
Тmin Tmax R s Состояние
почвы
21 14.09.17 100 (В) 20000 м    5/0 средняя, верхняя 
[Ac trans|Ci sp]
+10.5 +4.9 68 +10  1015  -0.3  707  273           
03 15.09.17 140 (ЮВ) 20000 м    3/0 верхняя 
[Ci sp]
+18.4 +8.8 54 +20  1012.3  -0.8  707  265           
09 15.09.17 160 (Ю) 6{10}  20000 м    3/0 верхняя 
[Ci sp]
+22 +9 43 +23  1006.6  -1.9  703  261           
15 15.09.17 330 (СЗ) 4000 м  слаб. ливневой дождь{гроза}  10/10 600 м кучево-дожд. 
[Cb cap]
+12 +11.1 94 +16  1010.9  0.3  704  270           
18 15.09.17 340 (С) 4000 м  слаб. ливневой дождь{гроза}  10/10 600 м кучево-дожд. 
[Cb cap]
+9.9 +9.5 97 +11  1010.1  -1.2  704  272           
09 16.09.17 330 (СЗ) 6{13}  20000 м    5/0 средняя, верхняя 
[Ac trans|Ci sp]
+16.5 +2.6 39 +16  1009.2  704  267           
15 16.09.17 260 (З) 20000 м    3/0 средняя, верхняя 
[Ac trans|Ci sp]
+7.3 +4.8 84 +7  1012.4  0.1  705  276           
18 16.09.17 тихо ()   20000 м    3/0 средняя, верхняя 
[Ac trans|Ci sp]
+6.9 +4.4 84 +7  1012.1  -0.4  704  276           
21 16.09.17 190 (Ю) 20000 м    ясно 
+5 +3.4 89 +6  1012.5  0.1  704  278           
03 17.09.17 290 (З) 20000 м    ясно 
+17.1 +7 51 +19  1008.3  -0.7  704  266           
09 17.09.17 230 (ЮЗ) 20000 м    ясно 
+20.5 +5.8 38 +21  1003.5  -1.5  701  262           
15 17.09.17 150 (ЮВ) 20000 м    ясно 
+9.8 +7.8 87 +9  1004.1  -1.2  699  271           
18 17.09.17 140 (ЮВ) 20000 м    ясно 
+8.4 +7.3 93 +8  1003.4  -1.1  699  272           
21 17.09.17 330 (СЗ) 3{10}  20000 м    8/0 средняя, верхняя 
[Ac trans|Ci sp]
+7.8 +6.8 93 +7  1004.3  0.7  699  273           
15 18.09.17 310 (СЗ) 10 км  слаб. дождь  10/0 средняя 
[Ac As]
+8.3 +6 85 +7  1008.5  0.4  702  273           
18 18.09.17 340 (С) 5{10}  20000 м  {дождь}  5/0 средняя, верхняя 
[Ac trans|Ci sp]
+6.9 +4.4 84 +5  1010.4  1.5  703  276           
21 18.09.17 300 (СЗ) 20000 м    3/0 средняя, верхняя 
[Ac trans|Ci sp]
+4.9 +2.5 84 +4  1012.6  1.4  704  278           
03 19.09.17 340 (С) 5{11}  20000 м    ясно 
+12.6 +3 52 +12  1012.7  706  271           
09 19.09.17 300 (СЗ) 20000 м    ясно 
+16.6 +1.3 36 +17  1010.8  0.1  705  268           
15 19.09.17 150 (ЮВ) 20000 м    3/0 верхняя 
[Ci sp]
+6.6 +3.8 82 +6  1013.4  -0.3  705  277           
18 19.09.17 160 (Ю) 20000 м    3/0 верхняя 
[Ci sp]
+6 +2.9 80 +4  1012.6  -0.7  704  277           
21 19.09.17 140 (ЮВ) 20000 м    1/0 верхняя 
[Ci sp]
+5.3 +2.5 82 +4  1011.1  -1.5  703  278           
03 20.09.17 180 (Ю) 6{11}  20000 м    9/0 средняя, верхняя 
[Ac trans|Ci sp]
+18.8 +1.6 32 +19  1005.4  -1.4  702  264           
09 20.09.17 160 (Ю) 6{12}  20000 м    9/0 верхняя 
[Ci sp]
+21.4 +1.8 27 +21  1000.2  -1.8  699  261           
15 20.09.17 140 (ЮВ) 5{10}  20000 м    8/0 верхняя 
[Ci sp]
+13.7 -0.4 38 +13  998.8  -1.8  696  267           
Время (UTC), дата Ветер
(°,м/с) 
Видим.   Явления Облачность Т
(°С)
Тd
(°С)
f(%) Тe
(°С)
Pmin
(гПа)
dP
(гПа)
Po
(мм)
O2
(г/м3)
Тmin Tmax R s Состояние
почвы

Для получения пояснительной информации подведите курсор к названию столбца.

ПОГОДА в Соловьевске - архив

Всё, что Вы хотите узнать о погоде в Соловьевске - удобно и подробно!

Выберите нужную дату (начиная с 1 января 2015* года) и нажмите кнопку "Найти".
Будут отображены архивные сводки погоды по пункту Соловьевск, начиная с указанной даты.


Отображать данные в формате CSV (для использования в таблицах Excel)


Внимание! Наш архив погоды предназначен исключительно для личного некоммерческого использования в познавательных целях. Если Вам необходимы официальные справки о состоянии погоды (для производственных, юридических, коммерческих и т.п. целей), обращайтесь в органы Росгидромета.

*Примечание: данная дата относится к архиву по метеостанциям СССР (Россия, СНГ, Балтия).
Архив по метеостанциям Зарубежной Европы и Азии (кроме Китая) хранится 10 дней, по другим регионам земного шара (Китай, Африка, Америка, Австралия, Океания) - 1 день.

Соловьевск - район местоположения метеостанции


Название, широта, долгота, высота метеостанции:
Соловьевск 49.9°ш. 115.8°д. 623 м над ур. моря [Российская Федерация]

Дополнительная информация

В oтличие oт бoльшинства пoгoдных сайтoв мы публикуем пoдрoбную метеoинфoрмацию в детальнoм прoфессиoнальнoм фoрмате.

Характеристики температуры и влажнoсти вoздуха измеряются на высoте 2 м в тени вдали oт зданий и деревьев.
Скoрoсть ветра измеряется на высoте 10 м (на урoвне рoста челoвека скoрoсть ветра ниже в 1.5-2 раза). Если метеoстанция нахoдится в гoрoде или в лесу, тo скoрoсть ветра занижена на 2-4 м/с пo сравнению с oткрытым местoм. Скoрoсть ветра над акватoриями крупных рек и oзёр, а также на вершинах хoлмoв на 2-5 м/с выше, чем в oбычных услoвиях.
Атмoсфернoе давление в разных тoчках местнoсти мoжет значительнo oтличаться oт давления на метеoстанции, в зависимoсти oт услoвий рельефа (при пoдъёме на 10 м давление пoнижается примернo на 1 мм рт.ст.).